| time (UTC) | temp F | wind direction | speed MPH | gust MPH | rain 1hr in | rain 24hr in | rain mn in | humidity % | barometer mb |
| 20260510064354 | 71 | 74 | 0.0 | 0.0 | 0.00 | 0.00 | 0.00 | 90 | 996.8 |
| 20260510063853 | 71 | 76 | 0.0 | 0.0 | 0.00 | 0.00 | 0.00 | 90 | 996.8 |
| 20260510063353 | 71 | 75 | 0.0 | 0.0 | 0.00 | 0.00 | 0.00 | 90 | 996.9 |
| 20260510063113 | 71 | 75 | 0.0 | 0.0 | 0.00 | 0.00 | 0.00 | 90 | 996.8 |
| 20260510062349 | 71 | 74 | 0.0 | 0.0 | 0.00 | 0.00 | 0.00 | 90 | 996.9 |
| 20260510062328 | 71 | 76 | 0.0 | 0.0 | 0.00 | 0.00 | 0.00 | 89 | 997.1 |
| 20260510061346 | 72 | 75 | 0.0 | 0.0 | 0.00 | 0.00 | 0.00 | 89 | 997.1 |
| 20260510060845 | 72 | 75 | 0.0 | 0.0 | 0.00 | 0.00 | 0.00 | 89 | 997.1 |
| 20260510060345 | 72 | 75 | 0.0 | 0.0 | 0.00 | 0.00 | 0.00 | 89 | 997.1 |
| 20260510055843 | 72 | 74 | 0.0 | 0.0 | 0.00 | 0.00 | 0.00 | 88 | 997.0 |
| 20260510055558 | 72 | 76 | 0.0 | 0.0 | 0.00 | 0.00 | 0.00 | 88 | 996.9 |
| 20260510054836 | 72 | 75 | 0.0 | 0.0 | 0.00 | 0.00 | 0.00 | 87 | 996.9 |
| 20260510054334 | 73 | 74 | 0.0 | 0.0 | 0.00 | 0.00 | 0.00 | 87 | 997.0 |
| 20260510054100 | 73 | 77 | 0.0 | 0.0 | 0.00 | 0.00 | 0.00 | 87 | 997.0 |
| 20260510053331 | 73 | 76 | 0.0 | 0.0 | 0.00 | 0.00 | 0.00 | 87 | 997.1 |
| 20260510052830 | 73 | 76 | 0.0 | 0.0 | 0.00 | 0.00 | 0.00 | 87 | 997.1 |
| 20260510052330 | 73 | 76 | 0.0 | 0.0 | 0.00 | 0.00 | 0.00 | 86 | 997.1 |
| 20260510052054 | 73 | 75 | 0.0 | 0.0 | 0.00 | 0.00 | 0.00 | 86 | 997.1 |
| 20260510051331 | 74 | 75 | 0.0 | 0.0 | 0.00 | 0.00 | 0.00 | 86 | 997.1 |
| 20260510050827 | 74 | 75 | 0.0 | 1.0 | 0.00 | 0.00 | 0.00 | 85 | 997.1 |
| 20260510050329 | 74 | 76 | 0.0 | 3.0 | 0.00 | 0.00 | 0.00 | 85 | 997.1 |
| 20260510045825 | 74 | 74 | 0.0 | 3.0 | 0.00 | 0.00 | 0.00 | 85 | 997.0 |
| 20260510045325 | 74 | 30 | 0.0 | 1.0 | 0.00 | 0.00 | 0.00 | 84 | 997.1 |
| 20260510044824 | 75 | 78 | 0.0 | 0.0 | 0.00 | 0.00 | 0.00 | 84 | 997.1 |
| 20260510044324 | 75 | 0 | 0.0 | 0.0 | 0.00 | 0.00 | 0.00 | 84 | 997.1 |
| 20260510043824 | 75 | 0 | 0.0 | 1.0 | 0.00 | 0.00 | 0.00 | 84 | 997.1 |
| 20260510043324 | 75 | 0 | 0.0 | 1.0 | 0.00 | 0.00 | 0.00 | 83 | 997.1 |
| 20260510042824 | 75 | 77 | 0.0 | 1.0 | 0.00 | 0.00 | 0.00 | 83 | 997.1 |
| 20260510042326 | 76 | 77 | 0.0 | 1.0 | 0.00 | 0.00 | 0.00 | 83 | 997.3 |
| 20260510042048 | 76 | 81 | 0.0 | 2.0 | 0.00 | 0.00 | 0.00 | 83 | 997.3 |
| 20260510041319 | 76 | 75 | 1.0 | 3.0 | 0.00 | 0.00 | 0.00 | 82 | 997.3 |
| 20260510041038 | 76 | 188 | 1.0 | 3.0 | 0.00 | 0.00 | 0.00 | 82 | 997.1 |
| 20260510040321 | 76 | 190 | 1.0 | 3.0 | 0.00 | 0.00 | 0.00 | 81 | 997.0 |
| 20260510035820 | 76 | 178 | 0.0 | 3.0 | 0.00 | 0.00 | 0.00 | 81 | 997.1 |
| 20260510035321 | 76 | 67 | 0.0 | 2.0 | 0.00 | 0.00 | 0.00 | 81 | 997.1 |
| 20260510034820 | 76 | 162 | 1.0 | 5.0 | 0.00 | 0.00 | 0.00 | 81 | 997.1 |
| 20260510034320 | 76 | 254 | 2.0 | 6.0 | 0.00 | 0.00 | 0.00 | 80 | 997.2 |
| 20260510033821 | 76 | 188 | 1.0 | 7.0 | 0.00 | 0.00 | 0.00 | 80 | 997.1 |
| 20260510033321 | 77 | 193 | 1.0 | 7.0 | 0.00 | 0.00 | 0.00 | 80 | 997.2 |
| 20260510032816 | 77 | 207 | 1.0 | 4.0 | 0.00 | 0.00 | 0.00 | 80 | 997.1 |
| 20260510032317 | 77 | 201 | 1.0 | 3.0 | 0.00 | 0.00 | 0.00 | 80 | 997.1 |
| 20260510031816 | 77 | 159 | 1.0 | 8.0 | 0.00 | 0.00 | 0.00 | 80 | 997.3 |
| 20260510031317 | 77 | 167 | 1.0 | 8.0 | 0.00 | 0.00 | 0.00 | 80 | 997.3 |
| 20260510030816 | 78 | 124 | 1.0 | 3.0 | 0.00 | 0.00 | 0.00 | 80 | 997.4 |
| 20260510030316 | 78 | 106 | 1.0 | 4.0 | 0.00 | 0.00 | 0.00 | 80 | 997.4 |
| 20260510025816 | 78 | 114 | 1.0 | 6.0 | 0.00 | 0.00 | 0.00 | 81 | 997.2 |
| 20260510025538 | 78 | 0 | 1.0 | 6.0 | 0.00 | 0.00 | 0.00 | 80 | 997.0 |
| 20260510024817 | 77 | 0 | 1.0 | 4.0 | 0.00 | 0.00 | 0.00 | 79 | 996.9 |
| 20260510024539 | 77 | 0 | 1.0 | 3.0 | 0.00 | 0.00 | 0.00 | 78 | 996.8 |
| 20260510024041 | 78 | 0 | 0.0 | 0.0 | 0.00 | 0.00 | 0.00 | 79 | 996.4 |
| 20260510023317 | 78 | 0 | 0.0 | 0.0 | 0.00 | 0.00 | 0.00 | 79 | 996.1 |
| 20260510022815 | 78 | 0 | 0.0 | 0.0 | 0.00 | 0.00 | 0.00 | 79 | 995.9 |
| 20260510022316 | 78 | 0 | 0.0 | 0.0 | 0.00 | 0.00 | 0.00 | 78 | 995.6 |
| 20260510021816 | 79 | 0 | 0.0 | 0.0 | 0.00 | 0.00 | 0.00 | 77 | 995.5 |
| 20260510021315 | 79 | 0 | 0.0 | 0.0 | 0.00 | 0.00 | 0.00 | 77 | 995.3 |
| 20260510021306 | 80 | 0 | 0.0 | 0.0 | 0.00 | 0.00 | 0.00 | 76 | 995.2 |
| 20260510020538 | 80 | 0 | 0.0 | 0.0 | 0.00 | 0.00 | 0.00 | 76 | 995.1 |
| 20260510020038 | 80 | 0 | 0.0 | 2.0 | 0.00 | 0.00 | 0.00 | 76 | 995.1 |
| 20260510015316 | 81 | 0 | 0.0 | 2.0 | 0.00 | 0.00 | 0.00 | 75 | 995.0 |
| 20260510014817 | 81 | 0 | 1.0 | 3.0 | 0.00 | 0.00 | 0.00 | 76 | 994.9 |
| 20260510014541 | 81 | 0 | 0.0 | 3.0 | 0.00 | 0.00 | 0.00 | 75 | 994.9 |
| 20260510013816 | 82 | 0 | 1.0 | 6.0 | 0.00 | 0.00 | 0.00 | 76 | 994.9 |
| 20260510013317 | 82 | 0 | 1.0 | 6.0 | 0.00 | 0.00 | 0.00 | 75 | 994.9 |
| 20260510012816 | 82 | 0 | 2.0 | 8.0 | 0.00 | 0.00 | 0.00 | 78 | 994.8 |
| 20260510011816 | 83 | 241 | 1.0 | 11.0 | 0.00 | 0.00 | 0.00 | 81 | 994.7 |
| 20260510011538 | 83 | 67 | 0.0 | 1.0 | 0.00 | 0.00 | 0.00 | 84 | 994.5 |
| 20260510010816 | 83 | 67 | 0.0 | 1.0 | 0.00 | 0.00 | 0.00 | 85 | 994.4 |
| 20260510010533 | 83 | 332 | 0.0 | 0.0 | 0.00 | 0.00 | 0.00 | 85 | 994.2 |
| 20260510005816 | 84 | 332 | 0.0 | 0.0 | 0.00 | 0.00 | 0.00 | 85 | 994.1 |
| 20260510005534 | 84 | 332 | 0.0 | 0.0 | 0.00 | 0.00 | 0.00 | 86 | 994.0 |
| 20260510004816 | 84 | 332 | 0.0 | 0.0 | 0.00 | 0.00 | 0.00 | 86 | 993.9 |
| 20260510004316 | 84 | 329 | 0.0 | 0.0 | 0.00 | 0.00 | 0.00 | 86 | 993.8 |
| 20260510003816 | 84 | 331 | 0.0 | 0.0 | 0.00 | 0.00 | 0.00 | 85 | 993.8 |
| 20260510003314 | 84 | 0 | 0.0 | 0.0 | 0.00 | 0.00 | 0.00 | 85 | 993.9 |
| 20260510002814 | 84 | 0 | 0.0 | 0.0 | 0.00 | 0.00 | 0.00 | 85 | 994.0 |
| 20260510002313 | 84 | 0 | 0.0 | 0.0 | 0.00 | 0.00 | 0.00 | 84 | 994.0 |
| 20260510001811 | 84 | 0 | 0.0 | 0.0 | 0.00 | 0.00 | 0.00 | 84 | 993.8 |
| 20260510001312 | 84 | 332 | 0.0 | 0.0 | 0.00 | 0.00 | 0.00 | 83 | 993.7 |
| 20260510000812 | 84 | 333 | 0.0 | 0.0 | 0.00 | 0.00 | 0.00 | 83 | 993.6 |
| 20260510000757 | 84 | 333 | 0.0 | 0.0 | 0.00 | 0.00 | 0.00 | 82 | 993.6 |
| 20260510000029 | 85 | 333 | 0.0 | 0.0 | 0.00 | 0.00 | 0.00 | 82 | 993.6 |
| 20260509235306 | 85 | 333 | 0.0 | 0.0 | 0.00 | 0.00 | 0.00 | 82 | 993.6 |
| 20260509234805 | 85 | 333 | 0.0 | 0.0 | 0.00 | 0.00 | 0.00 | 82 | 993.6 |
| 20260509234304 | 85 | 333 | 0.0 | 0.0 | 0.00 | 0.00 | 0.00 | 81 | 993.7 |
| 20260509233800 | 85 | 333 | 0.0 | 0.0 | 0.00 | 0.00 | 0.00 | 81 | 993.6 |
| 20260509233258 | 85 | 333 | 0.0 | 0.0 | 0.00 | 0.00 | 0.00 | 81 | 993.7 |
| 20260509232758 | 85 | 333 | 0.0 | 0.0 | 0.00 | 0.00 | 0.00 | 80 | 993.7 |
| 20260509232256 | 85 | 333 | 0.0 | 0.0 | 0.00 | 0.00 | 0.00 | 80 | 993.7 |
| 20260509232017 | 85 | 333 | 0.0 | 0.0 | 0.00 | 0.00 | 0.00 | 79 | 993.6 |
| 20260509231250 | 86 | 333 | 0.0 | 0.0 | 0.00 | 0.00 | 0.00 | 79 | 993.7 |
| 20260509230747 | 86 | 332 | 0.0 | 0.0 | 0.00 | 0.00 | 0.00 | 78 | 993.6 |
| 20260509230244 | 86 | 333 | 0.0 | 0.0 | 0.00 | 0.00 | 0.00 | 78 | 993.6 |
| 20260509225744 | 86 | 332 | 0.0 | 0.0 | 0.00 | 0.00 | 0.00 | 78 | 993.4 |
| 20260509225510 | 87 | 331 | 0.0 | 0.0 | 0.00 | 0.00 | 0.00 | 77 | 993.4 |
| 20260509224740 | 87 | 331 | 0.0 | 0.0 | 0.00 | 0.00 | 0.00 | 76 | 993.4 |
| 20260509224459 | 87 | 331 | 0.0 | 0.0 | 0.00 | 0.00 | 0.00 | 75 | 993.5 |
| 20260509223727 | 87 | 0 | 0.0 | 0.0 | 0.00 | 0.00 | 0.00 | 75 | 993.4 |
| 20260509223500 | 88 | 0 | 0.0 | 0.0 | 0.00 | 0.00 | 0.00 | 74 | 993.3 |
| 20260509222953 | 88 | 0 | 0.0 | 2.0 | 0.00 | 0.00 | 0.00 | 74 | 993.4 |
| 20260509222227 | 88 | 332 | 1.0 | 3.0 | 0.00 | 0.00 | 0.00 | 74 | 993.2 |
| 20260509221728 | 88 | 341 | 1.0 | 3.0 | 0.00 | 0.00 | 0.00 | 74 | 993.2 |
| 20260509221452 | 88 | 53 | 0.0 | 2.0 | 0.00 | 0.00 | 0.00 | 74 | 993.2 |
| 20260509220725 | 88 | 52 | 0.0 | 2.0 | 0.00 | 0.00 | 0.00 | 75 | 993.2 |
| 20260509220223 | 88 | 9 | 0.0 | 2.0 | 0.00 | 0.00 | 0.00 | 75 | 993.3 |
| 20260509215809 | 88 | 207 | 0.0 | 0.0 | 0.00 | 0.00 | 0.00 | 73 | 993.3 |
| 20260509214939 | 88 | 157 | 0.0 | 0.0 | 0.00 | 0.00 | 0.00 | 74 | 993.3 |
| 20260509214308 | 88 | 180 | 0.0 | 0.0 | 0.00 | 0.00 | 0.00 | 73 | 993.3 |
| 20260509213213 | 88 | 135 | 0.0 | 0.0 | 0.00 | 0.00 | 0.00 | 71 | 993.3 |
| 20260509212714 | 89 | 135 | 0.0 | 0.0 | 0.00 | 0.00 | 0.00 | 73 | 993.3 |
| 20260509212437 | 89 | 135 | 0.0 | 0.0 | 0.00 | 0.00 | 0.00 | 73 | 993.3 |
| 20260509211714 | 89 | 48 | 0.0 | 2.0 | 0.00 | 0.00 | 0.00 | 72 | 993.3 |
| 20260509211215 | 88 | 120 | 0.0 | 2.0 | 0.00 | 0.00 | 0.00 | 73 | 993.4 |
| 20260509210713 | 88 | 20 | 0.0 | 4.0 | 0.00 | 0.00 | 0.00 | 72 | 993.5 |
| 20260509210213 | 89 | 49 | 1.0 | 5.0 | 0.00 | 0.00 | 0.00 | 72 | 993.5 |
| 20260509205709 | 89 | 31 | 1.0 | 5.0 | 0.00 | 0.00 | 0.00 | 72 | 993.6 |
| 20260509205211 | 88 | 332 | 0.0 | 4.0 | 0.00 | 0.00 | 0.00 | 73 | 993.6 |
| 20260509204710 | 88 | 123 | 1.0 | 4.0 | 0.00 | 0.00 | 0.00 | 73 | 993.7 |
| 20260509204208 | 88 | 290 | 0.0 | 2.0 | 0.00 | 0.00 | 0.00 | 73 | 993.8 |
| 20260509203710 | 88 | 183 | 0.0 | 1.0 | 0.00 | 0.00 | 0.00 | 75 | 993.9 |
| 20260509203209 | 88 | 183 | 0.0 | 4.0 | 0.00 | 0.00 | 0.00 | 73 | 993.9 |
| 20260509202711 | 88 | 126 | 0.0 | 4.0 | 0.00 | 0.00 | 0.00 | 74 | 993.9 |
| 20260509202209 | 88 | 185 | 1.0 | 4.0 | 0.00 | 0.00 | 0.00 | 74 | 994.0 |
| 20260509201709 | 87 | 201 | 1.0 | 4.0 | 0.00 | 0.00 | 0.00 | 73 | 994.0 |
| 20260509201434 | 88 | 200 | 1.0 | 4.0 | 0.00 | 0.00 | 0.00 | 73 | 994.0 |
| 20260509200709 | 88 | 300 | 1.0 | 3.0 | 0.00 | 0.00 | 0.00 | 75 | 994.1 |
| 20260509200207 | 87 | 302 | 1.0 | 5.0 | 0.00 | 0.00 | 0.00 | 75 | 994.2 |
| 20260509195707 | 87 | 135 | 1.0 | 5.0 | 0.00 | 0.00 | 0.00 | 75 | 994.2 |
| 20260509195426 | 87 | 194 | 0.0 | 5.0 | 0.00 | 0.00 | 0.00 | 74 | 994.3 |
| 20260509194705 | 87 | 9 | 0.0 | 2.0 | 0.00 | 0.00 | 0.00 | 75 | 994.4 |
| 20260509194205 | 88 | 15 | 1.0 | 3.0 | 0.00 | 0.00 | 0.00 | 76 | 994.5 |
| 20260509193706 | 88 | 10 | 1.0 | 6.0 | 0.00 | 0.00 | 0.00 | 76 | 994.5 |
| 20260509193205 | 88 | 165 | 1.0 | 6.0 | 0.00 | 0.00 | 0.00 | 76 | 994.6 |
| 20260509192705 | 88 | 177 | 1.0 | 4.0 | 0.00 | 0.00 | 0.00 | 75 | 994.7 |
| 20260509192432 | 88 | 203 | 1.0 | 3.0 | 0.00 | 0.00 | 0.00 | 76 | 994.5 |
| 20260509191706 | 87 | 103 | 1.0 | 3.0 | 0.00 | 0.00 | 0.00 | 78 | 994.6 |
| 20260509191206 | 87 | 144 | 1.0 | 3.0 | 0.00 | 0.00 | 0.00 | 78 | 994.7 |
| 20260509190707 | 87 | 161 | 1.0 | 2.0 | 0.00 | 0.00 | 0.00 | 78 | 994.8 |
| 20260509190205 | 87 | 150 | 0.0 | 3.0 | 0.00 | 0.00 | 0.00 | 79 | 994.8 |
| 20260509185705 | 86 | 10 | 0.0 | 3.0 | 0.00 | 0.00 | 0.00 | 78 | 995.0 |
| 20260509185426 | 86 | 144 | 0.0 | 3.0 | 0.00 | 0.00 | 0.00 | 78 | 995.1 |
| 20260509184705 | 86 | 182 | 1.0 | 3.0 | 0.00 | 0.00 | 0.00 | 78 | 995.1 |
| 20260509184205 | 87 | 182 | 1.0 | 3.0 | 0.00 | 0.00 | 0.00 | 78 | 995.2 |
| 20260509183705 | 87 | 288 | 1.0 | 4.0 | 0.00 | 0.00 | 0.00 | 78 | 995.2 |
| 20260509183205 | 87 | 185 | 1.0 | 4.0 | 0.00 | 0.00 | 0.00 | 79 | 995.2 |
| 20260509182932 | 86 | 231 | 1.0 | 3.0 | 0.00 | 0.00 | 0.00 | 79 | 995.3 |
| 20260509182424 | 86 | 215 | 1.0 | 2.0 | 0.00 | 0.00 | 0.00 | 80 | 995.4 |
| 20260509181706 | 85 | 260 | 1.0 | 2.0 | 0.00 | 0.00 | 0.00 | 81 | 995.5 |
| 20260509181204 | 85 | 186 | 1.0 | 2.0 | 0.00 | 0.00 | 0.00 | 81 | 995.6 |
| 20260509180705 | 85 | 326 | 1.0 | 6.0 | 0.00 | 0.00 | 0.00 | 82 | 995.7 |
| 20260509180201 | 85 | 109 | 2.0 | 6.0 | 0.00 | 0.00 | 0.00 | 81 | 995.8 |
| 20260509175924 | 84 | 155 | 1.0 | 4.0 | 0.00 | 0.00 | 0.00 | 84 | 995.9 |
| 20260509175200 | 84 | 194 | 0.0 | 3.0 | 0.00 | 0.00 | 0.00 | 85 | 995.9 |
| 20260509174701 | 84 | 176 | 0.0 | 2.0 | 0.00 | 0.00 | 0.00 | 84 | 995.9 |
| 20260509174420 | 84 | 119 | 0.0 | 2.0 | 0.00 | 0.00 | 0.00 | 85 | 995.9 |
| 20260509173918 | 83 | 70 | 0.0 | 2.0 | 0.00 | 0.00 | 0.00 | 85 | 996.0 |
| 20260509173645 | 83 | 190 | 0.0 | 1.0 | 0.00 | 0.00 | 0.00 | 87 | 995.9 |
| 20260509172702 | 83 | 308 | 0.0 | 1.0 | 0.00 | 0.00 | 0.00 | 87 | 996.0 |
| 20260509172201 | 83 | 308 | 0.0 | 1.0 | 0.00 | 0.00 | 0.00 | 87 | 996.0 |
| 20260509171701 | 83 | 45 | 0.0 | 1.0 | 0.00 | 0.00 | 0.00 | 87 | 995.8 |
| 20260509171201 | 83 | 45 | 0.0 | 1.0 | 0.00 | 0.00 | 0.00 | 88 | 995.9 |
| 20260509170701 | 82 | 0 | 0.0 | 1.0 | 0.00 | 0.00 | 0.00 | 88 | 995.9 |
| 20260509170646 | 82 | 0 | 1.0 | 2.0 | 0.00 | 0.00 | 0.00 | 88 | 995.8 |
| 20260509165702 | 82 | 0 | 1.0 | 2.0 | 0.00 | 0.00 | 0.00 | 88 | 995.9 |
| 20260509165201 | 82 | 0 | 1.0 | 2.0 | 0.00 | 0.00 | 0.00 | 89 | 996.0 |
| 20260509164700 | 82 | 0 | 0.0 | 2.0 | 0.00 | 0.00 | 0.00 | 90 | 996.0 |
| 20260509164201 | 81 | 0 | 0.0 | 2.0 | 0.00 | 0.00 | 0.00 | 91 | 995.9 |
| 20260509163658 | 81 | 0 | 1.0 | 2.0 | 0.00 | 0.00 | 0.00 | 92 | 995.9 |
| 20260509163153 | 80 | 34 | 0.0 | 2.0 | 0.00 | 0.00 | 0.00 | 91 | 995.8 |
| 20260509162915 | 80 | 0 | 1.0 | 5.0 | 0.00 | 0.00 | 0.00 | 92 | 995.7 |
| 20260509162153 | 80 | 0 | 2.0 | 5.0 | 0.00 | 0.00 | 0.00 | 93 | 995.7 |
| 20260509161652 | 79 | 188 | 1.0 | 4.0 | 0.00 | 0.00 | 0.00 | 93 | 995.8 |
| 20260509161153 | 79 | 148 | 0.0 | 4.0 | 0.00 | 0.00 | 0.00 | 93 | 996.0 |
| 20260509160653 | 78 | 146 | 1.0 | 5.0 | 0.00 | 0.00 | 0.00 | 94 | 996.1 |
| 20260509160153 | 78 | 207 | 2.0 | 6.0 | 0.00 | 0.00 | 0.00 | 93 | 996.1 |
| 20260509155653 | 78 | 217 | 2.0 | 6.0 | 0.00 | 0.00 | 0.00 | 93 | 996.1 |
| 20260509155414 | 78 | 172 | 1.0 | 4.0 | 0.00 | 0.00 | 0.00 | 94 | 996.3 |
| 20260509155133 | 78 | 173 | 1.0 | 4.0 | 0.00 | 0.00 | 0.00 | 94 | 996.5 |
| 20260509154411 | 78 | 159 | 1.0 | 4.0 | 0.00 | 0.00 | 0.00 | 95 | 996.3 |
| 20260509153739 | 78 | 190 | 1.0 | 4.0 | 0.00 | 0.00 | 0.00 | 95 | 996.3 |
| 20260509152650 | 78 | 163 | 1.0 | 4.0 | 0.00 | 0.00 | 0.00 | 96 | 996.3 |
| 20260509152149 | 77 | 171 | 1.0 | 4.0 | 0.00 | 0.00 | 0.00 | 96 | 996.2 |
| 20260509152145 | 77 | 189 | 0.0 | 0.0 | 0.00 | 0.00 | 0.00 | 97 | 996.3 |
| 20260509151148 | 77 | 189 | 0.0 | 0.0 | 0.00 | 0.00 | 0.00 | 97 | 996.3 |
| 20260509150649 | 77 | 189 | 0.0 | 3.0 | 0.00 | 0.00 | 0.00 | 97 | 996.3 |
| 20260509150144 | 77 | 167 | 0.0 | 3.0 | 0.00 | 0.00 | 0.00 | 97 | 996.2 |
| 20260509145644 | 77 | 203 | 0.0 | 2.0 | 0.00 | 0.00 | 0.00 | 98 | 996.2 |
| 20260509145404 | 77 | 195 | 0.0 | 2.0 | 0.00 | 0.00 | 0.00 | 98 | 996.1 |
| 20260509144643 | 76 | 196 | 0.0 | 1.0 | 0.00 | 0.00 | 0.00 | 98 | 996.2 |
| 20260509144402 | 76 | 196 | 0.0 | 2.0 | 0.00 | 0.00 | 0.00 | 98 | 996.1 |
| 20260509143900 | 76 | 196 | 0.0 | 2.0 | 0.00 | 0.00 | 0.00 | 98 | 995.9 |
| 20260509143138 | 76 | 196 | 0.0 | 2.0 | 0.00 | 0.00 | 0.00 | 98 | 995.9 |
| 20260509142638 | 76 | 174 | 0.0 | 1.0 | 0.00 | 0.00 | 0.00 | 98 | 995.9 |
| 20260509142137 | 76 | 174 | 0.0 | 1.0 | 0.00 | 0.00 | 0.00 | 98 | 995.7 |
| 20260509141637 | 76 | 174 | 0.0 | 1.0 | 0.00 | 0.00 | 0.00 | 98 | 995.6 |
| 20260509141135 | 76 | 174 | 0.0 | 1.0 | 0.00 | 0.00 | 0.00 | 98 | 995.5 |
| 20260509140635 | 76 | 251 | 0.0 | 1.0 | 0.00 | 0.00 | 0.00 | 98 | 995.5 |
| 20260509140130 | 76 | 251 | 1.0 | 2.0 | 0.00 | 0.00 | 0.00 | 98 | 995.6 |
| 20260509135631 | 76 | 207 | 0.0 | 2.0 | 0.00 | 0.00 | 0.00 | 98 | 995.9 |
| 20260509135359 | 76 | 221 | 0.0 | 1.0 | 0.00 | 0.00 | 0.00 | 98 | 995.9 |
| 20260509134630 | 76 | 223 | 0.0 | 0.0 | 0.00 | 0.00 | 0.00 | 98 | 995.8 |
| 20260509134128 | 76 | 223 | 0.0 | 1.0 | 0.00 | 0.00 | 0.00 | 98 | 996.0 |
| 20260509133629 | 76 | 223 | 0.0 | 1.0 | 0.00 | 0.00 | 0.00 | 98 | 996.2 |
| 20260509133127 | 75 | 109 | 0.0 | 1.0 | 0.00 | 0.00 | 0.00 | 99 | 996.3 |
| 20260509132627 | 75 | 109 | 0.0 | 1.0 | 0.00 | 0.00 | 0.00 | 99 | 996.1 |
| 20260509132127 | 75 | 179 | 0.0 | 1.0 | 0.00 | 0.00 | 0.00 | 99 | 996.1 |
| 20260509131626 | 75 | 179 | 0.0 | 1.0 | 0.00 | 0.00 | 0.00 | 99 | 996.2 |
| 20260509131129 | 75 | 179 | 0.0 | 1.0 | 0.00 | 0.00 | 0.00 | 99 | 996.2 |
| 20260509130624 | 75 | 179 | 0.0 | 1.0 | 0.00 | 0.00 | 0.00 | 98 | 996.2 |
| 20260509130124 | 75 | 179 | 0.0 | 0.0 | 0.00 | 0.00 | 0.00 | 98 | 996.1 |
| 20260509125624 | 75 | 179 | 0.0 | 0.0 | 0.00 | 0.00 | 0.00 | 99 | 996.1 |
| 20260509125122 | 75 | 179 | 0.0 | 0.0 | 0.00 | 0.00 | 0.00 | 98 | 996.2 |
| 20260509124623 | 75 | 179 | 0.0 | 0.0 | 0.00 | 0.00 | 0.00 | 99 | 996.0 |
| 20260509124122 | 74 | 179 | 0.0 | 0.0 | 0.00 | 0.00 | 0.00 | 99 | 996.0 |
| 20260509124114 | 74 | 179 | 0.0 | 0.0 | 0.00 | 0.00 | 0.00 | 98 | 996.1 |
| 20260509123121 | 74 | 0 | 0.0 | 0.0 | 0.00 | 0.00 | 0.00 | 98 | 996.1 |
| 20260509122618 | 74 | 0 | 0.0 | 0.0 | 0.00 | 0.00 | 0.00 | 98 | 996.0 |
| 20260509122116 | 74 | 0 | 0.0 | 0.0 | 0.00 | 0.00 | 0.00 | 98 | 996.1 |
| 20260509122059 | 74 | 0 | 0.0 | 0.0 | 0.00 | 0.00 | 0.00 | 98 | 996.0 |
| 20260509121111 | 74 | 0 | 0.0 | 0.0 | 0.00 | 0.00 | 0.00 | 98 | 996.0 |
| 20260509120610 | 74 | 179 | 0.0 | 0.0 | 0.00 | 0.00 | 0.00 | 98 | 996.0 |
| 20260509120107 | 74 | 179 | 0.0 | 0.0 | 0.00 | 0.00 | 0.00 | 98 | 995.8 |
| 20260509115602 | 74 | 179 | 0.0 | 1.0 | 0.00 | 0.00 | 0.00 | 98 | 995.7 |
| 20260509115103 | 74 | 179 | 1.0 | 3.0 | 0.00 | 0.00 | 0.00 | 98 | 995.5 |
| 20260509114603 | 74 | 179 | 1.0 | 3.0 | 0.00 | 0.00 | 0.00 | 98 | 995.5 |
| 20260509114102 | 74 | 201 | 0.0 | 3.0 | 0.00 | 0.00 | 0.00 | 98 | 995.5 |
| 20260509113602 | 74 | 205 | 0.0 | 0.0 | 0.00 | 0.00 | 0.00 | 98 | 995.5 |
| 20260509113059 | 74 | 205 | 0.0 | 0.0 | 0.00 | 0.00 | 0.00 | 98 | 995.6 |
| 20260509112600 | 74 | 205 | 0.0 | 0.0 | 0.00 | 0.00 | 0.00 | 98 | 995.5 |
| 20260509112058 | 74 | 205 | 0.0 | 0.0 | 0.00 | 0.00 | 0.00 | 98 | 995.5 |
| 20260509111825 | 74 | 205 | 0.0 | 0.0 | 0.00 | 0.00 | 0.00 | 98 | 995.6 |
| 20260509111059 | 74 | 205 | 0.0 | 0.0 | 0.00 | 0.00 | 0.00 | 98 | 995.7 |
| 20260509110558 | 74 | 205 | 0.0 | 1.0 | 0.00 | 0.00 | 0.00 | 98 | 995.6 |
| 20260509110059 | 74 | 205 | 0.0 | 1.0 | 0.00 | 0.00 | 0.00 | 98 | 995.6 |
| 20260509105821 | 74 | 205 | 0.0 | 0.0 | 0.00 | 0.00 | 0.00 | 98 | 995.6 |
| 20260509105054 | 74 | 205 | 0.0 | 0.0 | 0.00 | 0.00 | 0.00 | 98 | 995.7 |
| 20260509104552 | 74 | 205 | 0.0 | 0.0 | 0.00 | 0.00 | 0.00 | 98 | 995.7 |
| 20260509104049 | 74 | 205 | 0.0 | 0.0 | 0.00 | 0.00 | 0.00 | 98 | 995.8 |
| 20260509104031 | 74 | 205 | 0.0 | 0.0 | 0.00 | 0.00 | 0.00 | 98 | 995.8 |
| 20260509103050 | 74 | 0 | 0.0 | 0.0 | 0.00 | 0.00 | 0.00 | 98 | 995.9 |
| 20260509102551 | 74 | 204 | 0.0 | 0.0 | 0.00 | 0.00 | 0.00 | 98 | 995.7 |
| 20260509102050 | 74 | 204 | 0.0 | 0.0 | 0.00 | 0.00 | 0.00 | 98 | 995.5 |
| 20260509101550 | 74 | 204 | 0.0 | 0.0 | 0.00 | 0.00 | 0.00 | 98 | 995.4 |
| 20260509101050 | 74 | 0 | 0.0 | 0.0 | 0.00 | 0.00 | 0.00 | 98 | 995.4 |
| 20260509100550 | 74 | 204 | 0.0 | 0.0 | 0.00 | 0.00 | 0.00 | 98 | 995.3 |
| 20260509100046 | 74 | 0 | 0.0 | 0.0 | 0.00 | 0.00 | 0.00 | 97 | 995.2 |
| 20260509095548 | 74 | 0 | 0.0 | 0.0 | 0.00 | 0.00 | 0.00 | 97 | 995.1 |
| 20260509095046 | 74 | 204 | 0.0 | 0.0 | 0.00 | 0.00 | 0.00 | 97 | 995.0 |
| 20260509094546 | 74 | 204 | 0.0 | 0.0 | 0.00 | 0.00 | 0.00 | 97 | 995.1 |
| 20260509094046 | 74 | 204 | 0.0 | 0.0 | 0.00 | 0.00 | 0.00 | 97 | 995.0 |
| 20260509093546 | 74 | 205 | 0.0 | 0.0 | 0.00 | 0.00 | 0.00 | 97 | 995.1 |
| 20260509093047 | 74 | 205 | 0.0 | 0.0 | 0.00 | 0.00 | 0.00 | 97 | 995.3 |
| 20260509092546 | 74 | 205 | 0.0 | 0.0 | 0.00 | 0.00 | 0.00 | 97 | 995.4 |
| 20260509092046 | 74 | 0 | 0.0 | 0.0 | 0.00 | 0.00 | 0.00 | 97 | 995.4 |
| 20260509091546 | 74 | 0 | 0.0 | 0.0 | 0.00 | 0.00 | 0.00 | 97 | 995.4 |
| 20260509091048 | 74 | 204 | 0.0 | 0.0 | 0.00 | 0.00 | 0.00 | 97 | 995.3 |
| 20260509090546 | 74 | 204 | 0.0 | 0.0 | 0.00 | 0.00 | 0.00 | 97 | 995.3 |
| 20260509090046 | 74 | 204 | 0.0 | 0.0 | 0.00 | 0.00 | 0.00 | 97 | 995.5 |
| 20260509085546 | 74 | 204 | 0.0 | 0.0 | 0.00 | 0.00 | 0.00 | 97 | 995.5 |
| 20260509085316 | 74 | 205 | 0.0 | 0.0 | 0.00 | 0.00 | 0.00 | 97 | 995.5 |
| 20260509084546 | 74 | 205 | 0.0 | 0.0 | 0.00 | 0.00 | 0.00 | 97 | 995.6 |
| 20260509084046 | 74 | 205 | 0.0 | 0.0 | 0.00 | 0.00 | 0.00 | 97 | 995.7 |
| 20260509083546 | 74 | 205 | 0.0 | 0.0 | 0.00 | 0.00 | 0.00 | 97 | 995.6 |
| 20260509083046 | 74 | 205 | 0.0 | 0.0 | 0.00 | 0.00 | 0.00 | 97 | 995.6 |
| 20260509082546 | 74 | 205 | 0.0 | 0.0 | 0.00 | 0.00 | 0.00 | 97 | 995.7 |
| 20260509082046 | 74 | 205 | 0.0 | 0.0 | 0.00 | 0.00 | 0.00 | 97 | 995.8 |
| 20260509081546 | 74 | 205 | 0.0 | 0.0 | 0.00 | 0.00 | 0.00 | 97 | 995.8 |
| 20260509081045 | 74 | 205 | 0.0 | 0.0 | 0.00 | 0.00 | 0.00 | 97 | 995.7 |
| 20260509080545 | 74 | 0 | 0.0 | 0.0 | 0.00 | 0.00 | 0.00 | 97 | 995.6 |
| 20260509080046 | 74 | 205 | 0.0 | 0.0 | 0.00 | 0.00 | 0.00 | 97 | 995.5 |
| 20260509075546 | 74 | 205 | 0.0 | 0.0 | 0.00 | 0.00 | 0.00 | 97 | 995.6 |
| 20260509075048 | 74 | 205 | 0.0 | 0.0 | 0.00 | 0.00 | 0.00 | 96 | 995.6 |
| 20260509074548 | 74 | 205 | 0.0 | 0.0 | 0.00 | 0.00 | 0.00 | 96 | 995.6 |
| 20260509074048 | 74 | 205 | 0.0 | 0.0 | 0.00 | 0.00 | 0.00 | 96 | 995.5 |
| 20260509073549 | 74 | 205 | 0.0 | 0.0 | 0.00 | 0.00 | 0.00 | 96 | 995.3 |
| 20260509073047 | 74 | 205 | 0.0 | 0.0 | 0.00 | 0.00 | 0.00 | 96 | 995.2 |
| 20260509072550 | 74 | 205 | 0.0 | 0.0 | 0.00 | 0.00 | 0.00 | 96 | 995.3 |
| 20260509072305 | 74 | 205 | 0.0 | 0.0 | 0.00 | 0.00 | 0.00 | 96 | 995.4 |
| 20260509071801 | 74 | 205 | 0.0 | 0.0 | 0.00 | 0.00 | 0.00 | 96 | 995.5 |
| 20260509071306 | 74 | 205 | 0.0 | 0.0 | 0.00 | 0.00 | 0.00 | 96 | 995.4 |
| 20260509070542 | 74 | 205 | 0.0 | 0.0 | 0.00 | 0.00 | 0.00 | 96 | 995.4 |
| 20260509070043 | 74 | 205 | 0.0 | 0.0 | 0.00 | 0.00 | 0.00 | 96 | 995.5 |
| 20260509065541 | 74 | 205 | 0.0 | 0.0 | 0.00 | 0.00 | 0.00 | 96 | 995.5 |
| 20260509065041 | 74 | 205 | 0.0 | 0.0 | 0.00 | 0.00 | 0.00 | 96 | 995.5 |
| 20260509064542 | 74 | 205 | 0.0 | 1.0 | 0.00 | 0.00 | 0.00 | 96 | 995.5 |